N804QS EDDM-EGKB

Flight info

Callsign N804QS
Flight time 1h 23m
Altitude 43000
Route GIVMI1N GIVMI Y101 INBED DCT REKDI DCT LOHRE DCT ADKUV DCT SOGRI L608 SUMUM
Aircraft C700/M-SBDGHM1RWXY/LB2

Departure

Time 2026-04-16 11:47
Airport Munich Airport (EDDM)

Arrival

Time 2026-04-16 13:10
Airport London Biggin Hill Airport (EGKB)
Time Latitude Longitude Altitude Speed Heading
2026-04-16 11:24 48.35427 11.80464 1480 ft 0 kts 263°
2026-04-16 11:38 48.35426 11.80448 1474 ft 5 kts 271°
2026-04-16 11:39 48.35420 11.80349 1480 ft 14 kts 266°
2026-04-16 11:39 48.35411 11.80208 1480 ft 0 kts 264°
2026-04-16 11:39 48.35417 11.80182 1471 ft 7 kts 306°
2026-04-16 11:40 48.35505 11.80153 1471 ft 17 kts 354°
2026-04-16 11:40 48.35637 11.80121 1474 ft 21 kts 345°
2026-04-16 11:40 48.35761 11.80061 1477 ft 12 kts 354°
2026-04-16 11:40 48.35807 11.79975 1480 ft 14 kts 261°
2026-04-16 11:41 48.35794 11.79811 1480 ft 17 kts 265°
2026-04-16 11:41 48.35786 11.79687 1476 ft 12 kts 264°
2026-04-16 11:41 48.35786 11.79545 1480 ft 15 kts 308°
2026-04-16 11:41 48.35885 11.79516 1480 ft 16 kts 353°
2026-04-16 11:42 48.35997 11.79494 1480 ft 16 kts 354°
2026-04-16 11:42 48.36101 11.79495 1480 ft 14 kts 47°
2026-04-16 11:42 48.36119 11.79656 1480 ft 16 kts 83°
2026-04-16 11:42 48.36134 11.79849 1480 ft 21 kts 84°
2026-04-16 11:43 48.36145 11.80001 1478 ft 23 kts 82°
2026-04-16 11:43 48.36165 11.80247 1473 ft 25 kts 83°
2026-04-16 11:43 48.36185 11.80498 1480 ft 20 kts 83°
2026-04-16 11:43 48.36201 11.80708 1480 ft 21 kts 83°
2026-04-16 11:44 48.36215 11.80886 1480 ft 19 kts 83°
2026-04-16 11:44 48.36231 11.81102 1480 ft 23 kts 84°
2026-04-16 11:44 48.36249 11.81352 1480 ft 22 kts 84°
2026-04-16 11:44 48.36264 11.81544 1480 ft 19 kts 82°
2026-04-16 11:45 48.36280 11.81753 1475 ft 20 kts 83°
2026-04-16 11:45 48.36322 11.81937 1480 ft 18 kts 39°
2026-04-16 11:45 48.36416 11.82005 1480 ft 14 kts 358°
2026-04-16 11:45 48.36504 11.81992 1480 ft 12 kts 350°
2026-04-16 11:46 48.36601 11.81974 1480 ft 16 kts 352°
2026-04-16 11:46 48.36666 11.81850 1480 ft 19 kts 267°
2026-04-16 11:46 48.36646 11.81563 1480 ft 56 kts 263°
2026-04-16 11:46 48.36564 11.80478 1487 ft 149 kts 263°
2026-04-16 11:47 48.36420 11.78687 2179 ft 193 kts 262°
2026-04-16 11:47 48.36240 11.76525 3451 ft 225 kts 265°
2026-04-16 11:47 48.36110 11.74101 5095 ft 240 kts 266°
2026-04-16 11:47 48.35935 11.71532 6837 ft 254 kts 264°
2026-04-16 11:48 48.35964 11.68836 8636 ft 263 kts 281°
2026-04-16 11:48 48.36495 11.66182 10470 ft 270 kts 294°
2026-04-16 11:48 48.37461 11.63707 12114 ft 277 kts 302°
2026-04-16 11:48 48.38479 11.61204 13842 ft 284 kts 300°
2026-04-16 11:49 48.39509 11.58631 15374 ft 290 kts 301°
2026-04-16 11:49 48.40576 11.56019 16899 ft 296 kts 301°
2026-04-16 11:49 48.41666 11.53352 18392 ft 303 kts 301°
2026-04-16 11:49 48.42776 11.50614 19674 ft 308 kts 301°
2026-04-16 11:50 48.43971 11.47898 20935 ft 314 kts 308°
2026-04-16 11:50 48.45520 11.45516 22012 ft 328 kts 317°
2026-04-16 11:50 48.47491 11.43503 22477 ft 359 kts 329°
2026-04-16 11:50 48.49886 11.42103 23361 ft 375 kts 341°
2026-04-16 11:51 48.52464 11.41317 24470 ft 381 kts 346°
2026-04-16 11:51 48.55098 11.40607 25411 ft 387 kts 346°
2026-04-16 11:51 48.57768 11.39887 26347 ft 392 kts 346°
2026-04-16 11:51 48.60472 11.39140 27264 ft 397 kts 346°
2026-04-16 11:52 48.63205 11.38381 28155 ft 403 kts 346°
2026-04-16 11:52 48.65979 11.37617 29035 ft 408 kts 346°
2026-04-16 11:52 48.68744 11.36607 29861 ft 409 kts 338°
2026-04-16 11:52 48.71373 11.34961 30635 ft 410 kts 330°
2026-04-16 11:53 48.73819 11.32741 31314 ft 412 kts 323°
2026-04-16 11:53 48.76208 11.30301 31990 ft 416 kts 323°
2026-04-16 11:53 48.78625 11.27866 32670 ft 420 kts 324°
2026-04-16 11:53 48.81074 11.25391 33311 ft 424 kts 323°
2026-04-16 11:54 48.83541 11.22986 33924 ft 430 kts 328°
2026-04-16 11:54 48.86275 11.21048 34500 ft 437 kts 335°
2026-04-16 11:54 48.89174 11.19560 34985 ft 443 kts 339°
2026-04-16 11:54 48.92114 11.18077 35449 ft 447 kts 338°
2026-04-16 11:55 48.95076 11.16554 35909 ft 452 kts 338°
2026-04-16 11:55 48.98073 11.15026 36353 ft 457 kts 338°
2026-04-16 11:55 49.01108 11.13492 36788 ft 462 kts 338°
2026-04-16 11:55 49.04171 11.11934 37207 ft 466 kts 338°
2026-04-16 11:56 49.07243 11.10364 37853 ft 459 kts 338°
2026-04-16 11:56 49.10208 11.08855 37868 ft 440 kts 338°
2026-04-16 11:56 49.13114 11.07368 37909 ft 443 kts 338°
2026-04-16 11:56 49.16074 11.05847 37908 ft 454 kts 338°
2026-04-16 11:57 49.19100 11.04302 37987 ft 461 kts 338°
2026-04-16 11:57 49.22143 11.02751 38412 ft 461 kts 338°
2026-04-16 11:57 49.25191 11.01179 38794 ft 462 kts 338°
2026-04-16 11:57 49.28238 10.99599 39106 ft 463 kts 338°
2026-04-16 11:58 49.31290 10.98024 39401 ft 463 kts 338°
2026-04-16 11:58 49.34307 10.96314 39662 ft 461 kts 333°
2026-04-16 11:58 49.37131 10.94013 39940 ft 459 kts 325°
2026-04-16 11:58 49.39717 10.91179 40196 ft 456 kts 318°
2026-04-16 11:59 49.42027 10.87853 40450 ft 454 kts 311°
2026-04-16 11:59 49.44056 10.84140 40702 ft 454 kts 307°
2026-04-16 11:59 49.46043 10.80367 40956 ft 454 kts 307°
2026-04-16 11:59 49.48042 10.76601 41198 ft 455 kts 307°
2026-04-16 12:00 49.50039 10.72814 41434 ft 456 kts 307°
2026-04-16 12:00 49.52029 10.69015 41663 ft 456 kts 307°
2026-04-16 12:00 49.54027 10.65207 41896 ft 457 kts 307°
2026-04-16 12:00 49.56023 10.61407 42125 ft 457 kts 307°
2026-04-16 12:01 49.58024 10.57588 42341 ft 458 kts 307°
2026-04-16 12:01 49.60020 10.53764 42560 ft 458 kts 307°
2026-04-16 12:01 49.62018 10.49937 42767 ft 458 kts 307°
2026-04-16 12:02 49.65985 10.42194 43137 ft 459 kts 303°
2026-04-16 12:02 49.67764 10.38107 43263 ft 461 kts 302°
2026-04-16 12:02 49.71411 10.29901 43263 ft 462 kts 303°
2026-04-16 12:03 49.74993 10.21744 43259 ft 456 kts 302°
2026-04-16 12:03 49.78565 10.13615 43252 ft 458 kts 302°
2026-04-16 12:04 49.82129 10.05468 43258 ft 461 kts 302°
2026-04-16 12:04 49.85730 9.97214 43259 ft 461 kts 302°
2026-04-16 12:05 49.89307 9.88991 43260 ft 459 kts 302°
2026-04-16 12:05 49.92860 9.80795 43259 ft 457 kts 302°
2026-04-16 12:06 49.96406 9.72593 43259 ft 459 kts 302°
2026-04-16 12:06 49.99966 9.64332 43262 ft 461 kts 302°
2026-04-16 12:07 50.03536 9.56017 43261 ft 462 kts 302°
2026-04-16 12:07 50.06724 9.47401 43257 ft 458 kts 291°
2026-04-16 12:08 50.08579 9.37969 43254 ft 455 kts 284°
2026-04-16 12:08 50.10268 9.28477 43257 ft 455 kts 284°
2026-04-16 12:09 50.11931 9.18958 43257 ft 456 kts 284°
2026-04-16 12:09 50.13603 9.09398 43253 ft 457 kts 284°
2026-04-16 12:10 50.15265 8.99810 43247 ft 459 kts 284°
2026-04-16 12:10 50.16920 8.90225 43242 ft 457 kts 284°
2026-04-16 12:11 50.18564 8.80651 43235 ft 455 kts 284°
2026-04-16 12:11 50.20189 8.71131 43231 ft 453 kts 284°
2026-04-16 12:12 50.21802 8.61636 43224 ft 453 kts 284°
2026-04-16 12:12 50.23415 8.52082 43228 ft 456 kts 284°
2026-04-16 12:13 50.25029 8.42469 43240 ft 459 kts 284°
2026-04-16 12:13 50.26638 8.32839 43238 ft 456 kts 284°
2026-04-16 12:14 50.28226 8.23279 43239 ft 453 kts 284°
2026-04-16 12:14 50.29799 8.13752 43241 ft 454 kts 284°
2026-04-16 12:15 50.31374 8.04157 43244 ft 457 kts 284°
2026-04-16 12:15 50.32950 7.94509 43244 ft 457 kts 284°
2026-04-16 12:16 50.34513 7.84884 43242 ft 455 kts 283°
2026-04-16 12:16 50.36057 7.75314 43239 ft 452 kts 283°
2026-04-16 12:17 50.37582 7.65813 43239 ft 453 kts 283°
2026-04-16 12:17 50.39117 7.56193 43237 ft 456 kts 283°
2026-04-16 12:18 50.40650 7.46535 43240 ft 457 kts 283°
2026-04-16 12:18 50.42173 7.36878 43234 ft 455 kts 283°
2026-04-16 12:19 50.43679 7.27272 43231 ft 453 kts 283°
2026-04-16 12:19 50.45172 7.17689 43227 ft 452 kts 283°
2026-04-16 12:20 50.46663 7.08076 43226 ft 453 kts 283°
2026-04-16 12:20 50.47895 7.00067 43230 ft 454 kts 283°
2026-04-16 12:21 50.49378 6.90402 43219 ft 456 kts 283°
2026-04-16 12:21 50.50863 6.80761 43219 ft 453 kts 284°
2026-04-16 12:22 50.52565 6.71243 43224 ft 451 kts 285°
2026-04-16 12:22 50.54223 6.61765 43228 ft 450 kts 285°
2026-04-16 12:23 50.55894 6.52255 43227 ft 452 kts 285°
2026-04-16 12:23 50.57560 6.42686 43231 ft 454 kts 284°
2026-04-16 12:24 50.59219 6.33118 43228 ft 452 kts 284°
2026-04-16 12:24 50.60859 6.23600 43226 ft 449 kts 284°
2026-04-16 12:25 50.62484 6.14128 43229 ft 448 kts 284°
2026-04-16 12:25 50.64104 6.04626 43226 ft 450 kts 284°
2026-04-16 12:26 50.65723 5.95080 43233 ft 452 kts 284°
2026-04-16 12:26 50.67339 5.85497 43231 ft 452 kts 284°
2026-04-16 12:27 50.68940 5.75951 43247 ft 449 kts 284°
2026-04-16 12:27 50.70527 5.66438 43236 ft 447 kts 284°
2026-04-16 12:28 50.72101 5.56950 43241 ft 447 kts 284°
2026-04-16 12:28 50.73672 5.47429 43244 ft 449 kts 284°
2026-04-16 12:29 50.75241 5.37861 43246 ft 451 kts 284°
2026-04-16 12:29 50.76798 5.28318 43247 ft 449 kts 284°
2026-04-16 12:30 50.78343 5.18785 43242 ft 446 kts 284°
2026-04-16 12:30 50.79871 5.09314 43229 ft 445 kts 283°
2026-04-16 12:31 50.81530 4.99849 43231 ft 447 kts 286°
2026-04-16 12:31 50.83340 4.90413 43241 ft 449 kts 285°
2026-04-16 12:32 50.85133 4.80931 43243 ft 449 kts 286°
2026-04-16 12:32 50.86919 4.71496 43248 ft 446 kts 285°
2026-04-16 12:33 50.88681 4.62109 43251 ft 444 kts 285°
2026-04-16 12:33 50.90726 4.52878 43242 ft 447 kts 294°
2026-04-16 12:34 50.93888 4.44353 43250 ft 450 kts 299°
2026-04-16 12:34 50.97135 4.35834 43250 ft 451 kts 299°
2026-04-16 12:35 51.00390 4.27352 43246 ft 448 kts 299°
2026-04-16 12:35 51.03608 4.18891 43240 ft 446 kts 299°
2026-04-16 12:36 51.06813 4.10458 43232 ft 446 kts 299°
2026-04-16 12:36 51.10026 4.01967 43232 ft 449 kts 299°
2026-04-16 12:37 51.13253 3.93416 43223 ft 451 kts 299°
2026-04-16 12:37 51.16474 3.84851 43221 ft 449 kts 299°
2026-04-16 12:38 51.19672 3.76319 43218 ft 447 kts 298°
2026-04-16 12:38 51.22827 3.67872 43215 ft 445 kts 298°
2026-04-16 12:39 51.25998 3.59351 43214 ft 447 kts 298°
2026-04-16 12:39 51.29181 3.50764 43224 ft 450 kts 298°
2026-04-16 12:40 51.32373 3.42127 43223 ft 451 kts 298°
2026-04-16 12:40 51.35321 3.33350 43226 ft 445 kts 290°
2026-04-16 12:41 51.37513 3.24111 43236 ft 443 kts 289°
2026-04-16 12:41 51.39713 3.14865 43238 ft 446 kts 289°
2026-04-16 12:42 51.41906 3.05545 43234 ft 448 kts 289°
2026-04-16 12:42 51.44104 2.96198 43241 ft 446 kts 289°
2026-04-16 12:43 51.46275 2.86905 43237 ft 444 kts 289°
2026-04-16 12:43 51.48432 2.77643 43232 ft 444 kts 289°
2026-04-16 12:44 51.50589 2.68333 43231 ft 446 kts 289°
2026-04-16 12:44 51.52749 2.58973 43222 ft 448 kts 289°
2026-04-16 12:45 51.54906 2.49586 43221 ft 447 kts 288°
2026-04-16 12:45 51.57030 2.40312 41981 ft 440 kts 288°
2026-04-16 12:46 51.58081 2.35701 40963 ft 437 kts 289°
2026-04-16 12:46 51.59121 2.31139 40003 ft 432 kts 289°
2026-04-16 12:46 51.60145 2.26632 39033 ft 427 kts 289°
2026-04-16 12:46 51.61141 2.22236 38087 ft 397 kts 289°
2026-04-16 12:47 51.62092 2.18033 36986 ft 396 kts 288°
2026-04-16 12:47 51.63024 2.13905 35974 ft 389 kts 288°
2026-04-16 12:47 51.63939 2.09842 34897 ft 383 kts 288°
2026-04-16 12:47 51.64839 2.05840 33737 ft 377 kts 288°
2026-04-16 12:48 51.65732 2.01861 31946 ft 380 kts 288°
2026-04-16 12:48 51.66644 1.97771 29647 ft 396 kts 288°
2026-04-16 12:48 51.67595 1.93515 27692 ft 405 kts 288°
2026-04-16 12:48 51.68542 1.89295 26275 ft 398 kts 288°
2026-04-16 12:49 51.69471 1.85119 24836 ft 394 kts 288°
2026-04-16 12:49 51.70388 1.80979 23429 ft 391 kts 288°
2026-04-16 12:49 51.71298 1.76874 22005 ft 385 kts 288°
2026-04-16 12:49 51.72188 1.72856 20717 ft 377 kts 288°
2026-04-16 12:50 51.73049 1.68964 19484 ft 371 kts 288°
2026-04-16 12:50 51.73912 1.65022 18244 ft 364 kts 287°
2026-04-16 12:50 51.74426 1.61079 16900 ft 357 kts 275°
2026-04-16 12:50 51.74511 1.57114 15634 ft 351 kts 268°
2026-04-16 12:51 51.74231 1.53232 14436 ft 347 kts 260°
2026-04-16 12:51 51.73586 1.49505 13340 ft 342 kts 251°
2026-04-16 12:51 51.72642 1.46136 12980 ft 317 kts 243°
2026-04-16 12:51 51.71502 1.43263 12859 ft 291 kts 236°
2026-04-16 12:52 51.70241 1.40837 12494 ft 279 kts 229°
2026-04-16 12:52 51.68802 1.38718 11798 ft 281 kts 222°
2026-04-16 12:52 51.67210 1.36914 11185 ft 280 kts 214°
2026-04-16 12:52 51.65517 1.35388 10596 ft 278 kts 212°
2026-04-16 12:53 51.63841 1.33877 10012 ft 275 kts 212°
2026-04-16 12:53 51.62180 1.32369 9365 ft 273 kts 212°
2026-04-16 12:53 51.60557 1.30908 9170 ft 259 kts 212°
2026-04-16 12:53 51.59026 1.29388 9159 ft 263 kts 220°
2026-04-16 12:54 51.57729 1.27265 9164 ft 268 kts 233°
2026-04-16 12:54 51.56775 1.24706 9158 ft 266 kts 246°
2026-04-16 12:54 51.56024 1.21989 9090 ft 268 kts 246°
2026-04-16 12:54 51.55236 1.19251 8832 ft 269 kts 245°
2026-04-16 12:55 51.54464 1.16542 8573 ft 264 kts 246°
2026-04-16 12:55 51.53707 1.13875 8313 ft 261 kts 246°
2026-04-16 12:55 51.52955 1.11222 8057 ft 260 kts 246°
2026-04-16 12:55 51.52201 1.08580 7805 ft 260 kts 246°
2026-04-16 12:56 51.51448 1.05937 7554 ft 260 kts 246°
2026-04-16 12:56 51.50695 1.03304 7303 ft 260 kts 246°
2026-04-16 12:56 51.49942 1.00667 7062 ft 259 kts 246°
2026-04-16 12:56 51.49190 0.98042 6813 ft 258 kts 245°
2026-04-16 12:57 51.48442 0.95430 6564 ft 257 kts 246°
2026-04-16 12:57 51.47795 0.92774 6300 ft 256 kts 255°
2026-04-16 12:57 51.47568 0.89951 6035 ft 256 kts 268°
2026-04-16 12:57 51.47678 0.87136 5997 ft 251 kts 273°
2026-04-16 12:58 51.47780 0.84313 5995 ft 256 kts 271°
2026-04-16 12:58 51.47841 0.82419 6004 ft 257 kts 272°
2026-04-16 12:58 51.47987 0.78592 6006 ft 256 kts 272°
2026-04-16 12:58 51.48061 0.76702 5996 ft 256 kts 272°
2026-04-16 12:59 51.48169 0.73863 5999 ft 255 kts 272°
2026-04-16 12:59 51.48273 0.71024 6007 ft 254 kts 272°
2026-04-16 12:59 51.48378 0.68183 5923 ft 259 kts 272°
2026-04-16 13:00 51.48591 0.62447 5406 ft 252 kts 271°
2026-04-16 13:00 51.48691 0.59639 5149 ft 252 kts 271°
2026-04-16 13:00 51.48792 0.56838 4898 ft 251 kts 271°
2026-04-16 13:00 51.48893 0.54043 4637 ft 250 kts 271°
2026-04-16 13:01 51.48991 0.51252 4373 ft 250 kts 271°
2026-04-16 13:01 51.49019 0.48471 4114 ft 248 kts 263°
2026-04-16 13:01 51.48619 0.45811 3988 ft 242 kts 251°
2026-04-16 13:01 51.47865 0.43364 3843 ft 246 kts 238°
2026-04-16 13:02 51.46995 0.41063 3698 ft 235 kts 240°
2026-04-16 13:02 51.46200 0.38849 3539 ft 222 kts 240°
2026-04-16 13:02 51.45442 0.36766 3396 ft 212 kts 239°
2026-04-16 13:02 51.44704 0.34772 3254 ft 203 kts 240°
2026-04-16 13:03 51.44006 0.32870 3124 ft 187 kts 239°
2026-04-16 13:03 51.43388 0.31126 2999 ft 183 kts 244°
2026-04-16 13:03 51.43108 0.29170 2983 ft 177 kts 265°
2026-04-16 13:03 51.43164 0.27232 2979 ft 173 kts 272°
2026-04-16 13:04 51.43238 0.25260 2989 ft 181 kts 270°
2026-04-16 13:04 51.43400 0.23247 2983 ft 182 kts 282°
2026-04-16 13:04 51.43751 0.21302 2824 ft 182 kts 281°
2026-04-16 13:04 51.44068 0.19345 2663 ft 181 kts 281°
2026-04-16 13:05 51.44383 0.17391 2515 ft 182 kts 281°
2026-04-16 13:05 51.44701 0.15444 2424 ft 177 kts 280°
2026-04-16 13:05 51.45017 0.13613 2393 ft 162 kts 281°
2026-04-16 13:05 51.45291 0.11842 1880 ft 164 kts 270°
2026-04-16 13:06 51.44897 0.10343 1771 ft 141 kts 220°
2026-04-16 13:06 51.43934 0.10110 1789 ft 148 kts 169°
2026-04-16 13:06 51.43154 0.11245 1825 ft 151 kts 137°
2026-04-16 13:06 51.42273 0.11059 1906 ft 143 kts 208°
2026-04-16 13:07 51.41321 0.10943 1788 ft 133 kts 194°
2026-04-16 13:07 51.40620 0.10009 1937 ft 130 kts 235°
2026-04-16 13:07 51.40083 0.08922 2092 ft 118 kts 226°
2026-04-16 13:07 51.39432 0.08099 1977 ft 117 kts 219°
2026-04-16 13:08 51.38716 0.07502 1790 ft 119 kts 202°
2026-04-16 13:08 51.37977 0.07072 1615 ft 114 kts 207°
2026-04-16 13:08 51.37263 0.06527 1381 ft 112 kts 211°
2026-04-16 13:08 51.36573 0.05928 1159 ft 116 kts 209°
2026-04-16 13:09 51.35835 0.05349 1058 ft 119 kts 210°
2026-04-16 13:09 51.35080 0.04770 854 ft 119 kts 207°
2026-04-16 13:09 51.34362 0.04211 656 ft 109 kts 205°
2026-04-16 13:09 51.33678 0.03692 543 ft 106 kts 202°
2026-04-16 13:10 51.33148 0.03286 560 ft 60 kts 207°
2026-04-16 13:10 51.32893 0.03090 568 ft 31 kts 207°
2026-04-16 13:10 51.32713 0.02949 574 ft 28 kts 206°
2026-04-16 13:10 51.32542 0.02821 583 ft 27 kts 204°
2026-04-16 13:11 51.32409 0.02697 588 ft 14 kts 248°
2026-04-16 13:11 51.32467 0.02556 586 ft 19 kts 350°
2026-04-16 13:11 51.32613 0.02600 580 ft 25 kts 25°
2026-04-16 13:11 51.32761 0.02715 577 ft 20 kts 28°
2026-04-16 13:12 51.32877 0.02824 568 ft 19 kts 26°
2026-04-16 13:12 51.32974 0.02883 563 ft 6 kts 23°
2026-04-16 13:12 51.33041 0.02932 560 ft 16 kts 23°
2026-04-16 13:12 51.33165 0.03023 556 ft 13 kts 27°
2026-04-16 13:13 51.33202 0.02982 553 ft 8 kts 308°
2026-04-16 13:13 51.33226 0.02990 552 ft 0 kts 71°